Location: Bronschhofen
(47.4788°N, 9.0353°E)
Time: 21:18:47
(UTC+00:00)

SME Rocket - Pass Details

Date: 20 May 2022
Orbit: 551 x 2650 km, 99.9° (Epoch: 01 July)

Event Time Altitude Azimuth Distance (km) Brightness Sun altitude
Exits shadow 01:33:01 28° 241° (WSW) 1,084 3.8 -16.3°
Maximum altitude 01:33:47 31° 264° (W) 1,046 3.9 -16.2°
Drops below altitude 10° 01:37:38 10° 327° (NNW) 2,110 6.1 -15.9°
Sets 01:40:22 0° 337° (NNW) 3,237 7.2 -15.6°
